GW0118 Weather Reports


time (UTC)temp
C
wind
direction
speed
KPH
gust
KPH
rain 1hr
cm
rain 24hr
cm
rain mn
cm
humidity
%
barometer
mb
20260503023111 10 0 0.0 1.6 0.00 1.70 0.00 94 1015.7
20260503021604 10 61 0.0 3.2 0.00 1.70 0.00 94 1015.7
20260503020059 9 0 0.0 3.2 0.00 1.70 0.00 94 1015.8
20260503014602 10 0 0.0 1.6 0.00 1.70 0.00 94 1015.7
20260503013057 9 70 0.0 1.6 0.00 1.70 0.00 94 1015.8
20260503011605 9 63 0.0 3.2 0.00 1.70 0.00 94 1016.2
20260503010100 9 0 0.0 1.6 0.00 1.70 0.00 94 1016.3
20260503004601 9 0 0.0 1.6 0.00 1.70 0.00 94 1016.4
20260503003059 9 0 0.0 4.8 0.00 1.70 0.00 94 1016.2
20260503001603 9 122 0.0 1.6 0.00 1.68 0.00 94 1016.6
20260503000108 9 116 1.6 3.2 0.00 1.68 0.00 93 1016.7
20260502234615 9 117 1.6 1.6 0.00 1.68 0.00 93 1017.0
20260502233109 9 0 0.0 4.8 0.00 1.68 0.00 93 1017.1
20260502231612 9 72 1.6 4.8 0.00 1.68 0.00 93 1016.9
20260502230059 9 63 0.0 1.6 0.00 1.68 0.00 93 1017.1
20260502224559 9 101 0.0 1.6 0.00 1.68 0.00 93 1017.2
20260502223057 10 0 0.0 1.6 0.00 1.68 0.00 93 1017.2
20260502221604 10 0 0.0 1.6 0.00 1.68 0.00 93 1017.3
20260502220106 10 0 0.0 1.6 0.00 1.68 0.00 93 1017.5
20260502214608 10 0 0.0 1.6 0.00 1.68 1.68 93 1017.4
20260502213059 10 0 0.0 1.6 0.00 1.68 1.68 93 1017.5
20260502211608 10 0 0.0 1.6 0.00 1.68 1.68 92 1017.4
20260502210109 10 0 0.0 6.4 0.00 1.68 1.68 91 1017.1
20260502204559 10 0 0.0 1.6 0.00 1.68 1.68 91 1017.2
20260502203113 11 176 4.8 9.7 0.00 1.68 1.68 90 1016.9
20260502201558 11 0 0.0 6.4 0.00 1.68 1.68 90 1016.9
20260502200059 11 151 1.6 8.0 0.00 1.68 1.68 90 1016.8
20260502194600 11 132 1.6 12.9 0.00 1.68 1.68 90 1016.6
20260502193057 11 168 1.6 4.8 0.00 1.68 1.68 92 1016.4
20260502191557 11 208 1.6 6.4 0.00 1.68 1.68 91 1016.3
20260502190100 11 248 0.0 4.8 0.00 1.68 1.68 91 1016.1
20260502184559 11 247 1.6 6.4 0.00 1.68 1.68 91 1016.0
20260502183100 12 0 0.0 1.6 0.00 1.68 1.68 92 1016.0
20260502181559 12 0 0.0 1.6 0.00 1.68 1.68 91 1016.0
20260502163105 11 331 0.0 3.2 0.74 1.68 1.68 93 1016.9
20260502161606 10 0 0.0 3.2 0.94 1.60 1.60 92 1017.1
20260502160104 10 212 1.6 9.7 0.81 1.42 1.42 92 1017.6
20260502151611 10 321 9.7 22.5 0.08 0.66 0.66 89 1017.2
20260502150109 11 96 17.7 29.0 0.03 0.61 0.61 86 1018.1
20260502123111 13 228 3.2 14.5 0.00 0.56 0.56 89 1018.9
20260502121603 12 139 3.2 14.5 0.00 0.56 0.56 89 1019.0
20260502120114 12 245 6.4 12.9 0.00 0.56 0.56 89 1019.5
20260502114603 12 0 0.0 6.4 0.00 0.56 0.56 91 1019.5
20260502113100 12 0 0.0 4.8 0.00 0.56 0.56 91 1019.8
20260502111602 11 0 4.8 8.0 0.03 0.56 0.56 90 1019.8
20260502110100 12 11 1.6 6.4 0.08 0.56 0.56 90 1020.1
20260502104559 12 263 4.8 12.9 0.46 0.56 0.56 91 1020.4
20260502103113 12 267 1.6 9.7 0.46 0.56 0.56 91 1020.3
20260502101601 12 207 0.0 9.7 0.46 0.53 0.53 91 1020.2
20260502100125 12 161 6.4 11.3 0.41 0.48 0.48 90 1020.4
20260502090116 12 200 4.8 14.5 0.08 0.08 0.08 89 1020.4
20260502070101 12 114 3.2 12.9 0.00 0.00 0.00 84 1020.5
20260502064608 12 235 9.7 16.1 0.00 0.00 0.00 84 1020.4
20260502063058 12 194 9.7 20.9 0.00 0.00 0.00 84 1020.3
20260502061559 12 320 11.3 22.5 0.00 0.00 0.00 84 1020.4
20260502060101 12 134 9.7 20.9 0.00 0.00 0.00 84 1020.2
20260502054600 12 169 8.0 16.1 0.00 0.00 0.00 85 1020.2
20260502053058 12 243 3.2 12.9 0.00 0.00 0.00 85 1020.0
20260502051652 12 174 6.4 19.3 0.00 0.00 0.00 85 1020.0
20260502050100 12 141 12.9 20.9 0.00 0.00 0.00 84 1020.2
20260502044608 12 148 9.7 19.3 0.00 0.00 0.00 84 1020.2
20260502043109 12 173 11.3 20.9 0.00 0.00 0.00 84 1020.3
20260502041556 12 153 9.7 17.7 0.00 0.00 0.00 84 1020.4
20260502040059 12 237 8.0 14.5 0.00 0.00 0.00 84 1020.6
20260502034557 12 109 4.8 12.9 0.00 0.00 0.00 84 1020.6
20260502033059 11 134 1.6 3.2 0.00 0.00 0.00 84 1020.7
20260502031610 11 0 0.0 1.6 0.00 0.00 0.00 83 1020.7
20260502030057 11 115 0.0 1.6 0.00 0.00 0.00 83 1020.7
20260502024600 11 0 0.0 0.0 0.00 0.00 0.00 82 1020.7